Location: Fredericksburg
(30.2750°N, 98.8720°W)
Time: 12:12:28
(UTC-06:00)

Daily predictions for brighter satellites

Satellite Brightness Start Highest point End
(mag) Time Altitude Azimuth Time Altitude Azimuth Time Altitude Azimuth
H-2A ROCKET BODY 4.0 17:46:37 10° SW 17:51:51 61° SSE 18:19:46 10° E
ATLAS 2AS CENTAUR R/B 3.0 18:14:42 10° NNW 18:22:30 90° WSW 18:29:32 10° SSE
AQUARIUS 4.5 18:20:01 10° S 18:24:29 75° WSW 18:29:00 10° NNW
Cosmos 1328 3.8 18:24:19 10° S 18:28:16 64° E 18:32:16 10° NNE
ATLAS 5 CENTAUR R/B 4.2 18:23:32 10° SSW 18:28:59 89° ESE 18:53:17 10° NNE
Cosmos 1400 Rocket 4.4 18:27:15 10° SSW 18:31:02 39° W 18:34:52 10° N
SeaSat 1 3.2 18:26:38 10° SSE 18:31:28 59° WSW 18:36:20 10° NNW
IRS-1A Rocket 4.2 18:26:24 10° SSE 18:31:50 64° ENE 18:37:21 10° N
Cosmos 1626 2.3 18:30:17 10° SSE 18:33:51 49° E 18:37:26 10° NNE
Cosmos 1766 Rocket 3.5 18:31:20 10° S 18:35:39 74° E 18:39:57 10° N
ALOS 2.6 18:31:53 10° SE 18:36:15 41° ENE 18:40:37 10° N
EO 1 Del DPAF 3.5 18:35:50 10° NNE 18:39:33 49° E 18:43:15 10° S
Lacrosse 5 3.5 18:36:36 10° SSE 18:39:47 17° ESE 18:42:42 11° E
Cosmos 2366 rocket 4.0 18:34:57 10° N 18:41:05 61° E 18:47:09 10° SSE
Landsat 4 3.6 18:40:49 10° NNE 18:44:32 88° E 18:48:14 10° SSW
NOSS 3-4 (A) 4.4 18:38:35 10° NNW 18:45:10 37° NE 18:52:08 10° ESE
NOSS 3-4 (C) 4.4 18:38:42 10° NNW 18:45:17 37° NE 18:52:13 10° ESE
MOS 1 4.3 18:43:15 10° SSE 18:48:45 59° ENE 18:54:17 10° N
NOAA 12 4.2 18:44:42 10° SSE 18:49:43 50° ENE 18:54:47 10° N
SEDSat Delta rocket 4.0 18:42:58 10° WSW 18:49:46 88° S 18:55:14 15° E
Cosmos 1703 3.4 18:46:50 10° S 18:50:40 50° E 18:54:32 10° NNE
DMSP B5D1-3 4.5 18:46:40 10° NNE 18:51:45 67° ESE 18:56:47 10° S
Nadezhda 3 Rocket 4.3 18:47:02 10° SSE 18:53:00 47° E 18:59:02 10° NNE
SKYMED 2 4.2 18:48:50 10° N 18:53:06 59° WNW 18:57:22 10° SSW
Delta R/B 3.4 18:52:51 10° SSW 18:53:44 15° SSE 18:54:07 14° SE
ERS-2 2.9 18:50:56 10° SE 18:54:09 30° ENE 18:57:23 10° N
YAOGAN 1 2.9 18:49:56 10° S 18:54:13 70° WSW 18:58:32 10° NNW
Meteor 2-2 Rocket 4.2 18:50:07 10° N 18:55:48 69° E 19:01:23 10° SSE
Cosmos 1656 Rocket 3.7 18:52:33 10° N 18:57:57 56° ENE 19:03:23 10° SSE
Cosmos 1300 3.8 18:54:46 10° NNW 18:58:27 47° W 19:02:06 10° SSW
Cosmos 2369 Rocket 4.3 18:55:05 10° NW 19:00:00 31° WSW 19:04:56 10° SSW
Cosmos 1151 Rocket 4.0 18:57:50 10° NNE 19:01:32 26° E 19:05:12 10° SE
Cosmos 2058 2.8 19:02:34 10° S 19:06:40 64° E 19:10:49 10° NNE
Cosmos 1943 Rocket 3.5 19:01:59 10° NW 19:07:12 42° WSW 19:12:21 10° S
CZ-4C R/B 3.1 19:04:05 10° SSE 19:08:01 24° ESE 19:09:27 21° E
SL-27 R/B 4.1 19:07:45 10° SSE 19:09:17 17° ESE 19:09:17 17° ESE
ISS -1.9 19:08:26 10° SSE 19:10:21 16° SE 19:10:21 16° SE
SL-24 R/B - RUBIN 2 3.5 19:06:38 10° NNW 19:10:58 58° ENE 19:15:11 10° SE
OAO 3 Rocket 3.3 19:15:11 10° WNW 19:19:49 58° NNE 19:21:47 32° ENE
Cosmos 371 Rocket 3.2 19:15:43 10° SSW 19:20:31 90° ESE 19:25:21 10° NNE
Thor Agena Rocket 3.7 19:16:03 11° NNE 19:21:00 48° E 19:25:58 10° S
FENGYUN 3A 4.0 19:15:55 10° S 19:21:13 68° WSW 19:26:33 10° NNW
ASTRO E2 2.6 19:18:37 10° W 19:22:36 74° N 19:23:52 41° ENE
CZ-4 R/B 4.5 19:20:23 10° SW 19:23:22 19° W 19:26:23 10° NW
Cosmos 2151 3.1 19:21:52 10° S 19:26:06 76° W 19:30:23 10° N
Cosmos 1515 Rocket 3.3 19:28:45 10° N 19:33:04 75° E 19:37:23 10° S
Cosmos 2082 Rocket 3.6 19:29:47 10° SSE 19:32:30 20° SE 19:32:30 20° SE
SPOT 3 Rocket 4.1 19:30:04 10° S 19:35:07 60° WSW 19:40:13 10° NNW
Cosmos 909 Rocket 4.3 19:31:37 10° NNW 19:37:45 42° ENE 19:39:15 36° E
Cosmos 1500 Rocket 4.0 19:35:12 10° SSW 19:39:36 63° W 19:44:02 10° N
H-2A R/B 2.8 19:36:52 10° S 19:40:37 73° W 19:44:26 10° NNW
Cosmos 2239 Rocket 4.4 19:35:58 10° N 19:42:01 61° E 19:48:06 10° SSE
Cosmos 1346 Rocket 4.0 19:39:22 10° NNW 19:43:02 40° W 19:46:40 10° SSW
Hubble Space Telescope 2.2 19:50:28 10° SW 19:53:29 28° S 19:53:29 28° S
Cosmos 1455 3.2 19:52:36 10° NNW 19:56:16 45° W 19:59:52 10° SSW
Cosmos 2228 Rocket 4.0 19:52:18 10° NNW 19:56:44 50° W 20:01:08 10° SSW
CZ-3A R/B 3.2 19:52:36 10° W 20:00:36 37° SSW 20:01:24 33° S
Cosmos 1833 Rocket 3.5 19:55:42 10° S 19:59:09 34° SSE 19:59:09 34° SSE
CZ-3 Stage 3 2.2 19:55:11 10° WSW 20:03:14 83° SW 20:03:14 83° SW
Cosmos 468 Rocket 4.1 20:04:12 10° SSW 20:09:17 70° WNW 20:10:07 58° NNW
Cosmos 304 Rocket 4.3 20:10:03 10° SSW 20:13:48 54° SW 20:13:48 54° SW
Atlas Centaur 2 4.5 20:17:23 10° S 20:19:51 14° SSE 20:19:51 14° SSE
Lacrosse 5 2.5 20:17:21 10° SW 20:21:58 52° WNW 20:21:58 52° WNW
SEDSat Delta rocket 4.2 20:30:01 10° W 20:35:23 60° WNW 20:35:23 60° WNW
CZ-4C R/B 3.8 20:51:42 10° WSW 20:54:42 27° W 20:54:42 27° W
Cosmos 2082 Rocket 4.5 21:12:47 10° SW 21:14:26 18° WSW 21:14:26 18° WSW
